Showing default

VIASAT 2, 42740

Orbit data source: Space-Track

VIASAT 2, 42740 is a payload satellite owned by ViaSat (US) in GEO that was launched on Thu, 01 Jun 2017 UTC via an ARIANE 5ECA launch vehicle from the French Guiana (FRGUI). Payloads include a variety of satellites, spacecraft, and rockets equipped with specific instruments for various scientific and technological missions. These include communications satellites like Starlink; space stations such as the ISS; scientific satellites like the Hubble; Earth observation satellites from companies like Planet Labs, Umbra, and HawkEye 360; GPS; miniature CubeSats for education and research; and military/defense satellites.

Loading next visibility...
VIASAT 2 details
Identifier
42740, 2017-029A
Orbit
GEO
Last TLE update2 days ago
Origin
Flag of USViaSat (US)
ManufacturerBoeing/ES
MissionOperational Commercial Communications
Bus & MotorBSS-702HP, R-4D
Mass6,418 kg wet, 3,500 kg dry
Launch date (UTC)
2017-06-01 (8 years ago)
Launch vehicle
ARIANE 5ECA
Launch site
French Guiana (FRGUI)
Object type
Payload
Rocket body
Debris
Shape & HBRBox + 2 Pan, 34 m
Radar Cross Section31.184 m², Large (>1 m²)

Expand to show TLE details & history

TLE from 2 days ago
0 VIASAT 2
1 42740U 17029A   24359.21021561 -.00000242  00000-0  00000-0 0  9996
2 42740   0.0178 328.5137 0000083 333.4102 157.0994  1.00271966 27782
Epoch: 2024-12-24T05:02Z
Definitive object data (Epoch: 2024-12-24T05:02:42.628Z)
Latitude0.03026°
Longitude-69.87976°
Altitude35,786.354 km
Speed3.075 km/s
True Right ascension06h 36m 04s
True Declination0° 01' 49"
Sunlit
Object was in daylight at TLE epoch
Visualization TLE readout
Latitude-0.03349°
Longitude62.91327°
Altitude35,786.151 km
Speed3.075 km/s
Apparent Right ascension15h 44m 11s
Apparent Declination-6° 06' 31"
Sunlit
Object is in daylight
Visualization observer readout
Local Sidereal Time13:06:19
Azimuth132.253° SE
Elevation31.363°
Doppler factor1
Orbital elements
Apogee altitude35,787.965 km
Perigee altitude35,787.265 km
Semi-major axis42,165.752 km
Eccentricity0.0000083
Inclination0.0178°
RAAN328.5137°
Arg. of periapsis333.4102°
True anomaly157.09977°
Mean anomaly157.0994°
Eccentric anomaly157.09959°
Mean motion0.25067 °/min
BSTARUnknown
Orbital period1436.15 mins
Loading historical data...
42740 neighbors
Authenticating...
Loading maneuver chart data...
Loading historical data...
Loading historical data...
Loading historical data...
Loading historical data...
Loading historical data...
Loading historical data...
Loading historical data...
Other satellites on launch #29 in the year 2017 (2017-06-01 UTC)

VIASAT 2 Visibility forecast

Observer location: undefined°, undefined

Span
Click to sort rows by Start time (UTC) header in descending order
Start Az.
Max El. time (UTC)
Max El. Az.
Max El.
End time (UTC)
End Az.
1440 mins2024-12-26 13:44:35.569Z132.267° SE2024-12-27 03:30:35.569Z132.217° SE27.529°2024-12-27 13:44:35.569Z132.27° SE
|